When you browse on this site, cookies collect data to enhance your experience and personalize the content and advertising you see.
Visit our Privacy Policy to learn more. By continuing to use the site, you agree to this use of cookies and data.
  • In Romania
  • List of Countries
  • For 7 days
  • Water Temperature
  • Weather Map
  • Weather Widgets
  • user-avatar
    Login

    Hourly Weather Jambol

    Today, 23 January, Thursday

    Time Temperature Precipitation Wind Pressure Humidity
    00:00 +2°C° 0 mm 2 mps 753 mmHg 51%
    01:00 +2°C° 0 mm 2 mps 753 mmHg 51%
    02:00 +2°C° 0 mm 2 mps 754 mmHg 50%
    03:00 +1°C° 0 mm 3 mps 754 mmHg 51%
    04:00 0°C° 0 mm 4 mps 755 mmHg 53%
    05:00 0°C° 0 mm 4 mps 755 mmHg 54%
    06:00 -1°C° 0 mm 4 mps 757 mmHg 60%
    07:00 -1°C° 0 mm 4 mps 758 mmHg 66%
    08:00 -2°C° 0 mm 4 mps 759 mmHg 72%
    09:00 0°C° 0 mm 4 mps 760 mmHg 64%
    10:00 +3°C° 0 mm 4 mps 760 mmHg 56%
    11:00 +4°C° 0 mm 4 mps 761 mmHg 48%
    12:00 +5°C° 0 mm 4 mps 761 mmHg 46%
    13:00 +6°C° 0 mm 4 mps 761 mmHg 43%
    14:00 +7°C° 0 mm 3 mps 760 mmHg 41%
    15:00 +5°C° 0 mm 3 mps 760 mmHg 46%
    16:00 +5°C° 0 mm 2 mps 761 mmHg 52%
    17:00 +4°C° 0 mm 2 mps 761 mmHg 58%
    18:00 +3°C° 0 mm 2 mps 761 mmHg 62%
    19:00 +3°C° 0 mm 1 mps 761 mmHg 65%
    20:00 +2°C° 0 mm 1 mps 762 mmHg 69%
    21:00 +2°C° 0 mm 1 mps 762 mmHg 70%
    22:00 +2°C° 0 mm 1 mps 762 mmHg 71%
    23:00 +1°C° 0 mm 1 mps 762 mmHg 73%

    Tomorrow, 24 January, Friday

    Time Temperature Precipitation Wind Pressure Humidity
    00:00 +1°C° 0 mm 1 mps 762 mmHg 73%
    01:00 +1°C° 0 mm 1 mps 763 mmHg 73%
    02:00 +1°C° 0 mm 1 mps 763 mmHg 73%
    03:00 +1°C° 0 mm 1 mps 762 mmHg 73%
    04:00 0°C° 0 mm 0 mps 762 mmHg 73%
    05:00 -1°C° 0 mm 0 mps 762 mmHg 73%
    06:00 -1°C° 0 mm 0 mps 762 mmHg 73%
    07:00 0°C° 0 mm 1 mps 762 mmHg 73%
    08:00 0°C° 0 mm 1 mps 762 mmHg 73%
    09:00 +2°C° 0 mm 1 mps 762 mmHg 66%
    10:00 +3°C° 0 mm 2 mps 762 mmHg 58%
    11:00 +5°C° 0 mm 2 mps 762 mmHg 51%
    12:00 +5°C° 0 mm 3 mps 762 mmHg 49%
    13:00 +5°C° 0 mm 3 mps 761 mmHg 48%
    14:00 +7°C° 0 mm 3 mps 760 mmHg 46%
    15:00 +5°C° 0 mm 3 mps 760 mmHg 51%
    16:00 +5°C° 0 mm 2 mps 760 mmHg 56%
    17:00 +4°C° 0 mm 2 mps 760 mmHg 60%
    18:00 +3°C° 0 mm 2 mps 759 mmHg 64%
    19:00 +3°C° 0 mm 2 mps 759 mmHg 68%
    20:00 +2°C° 0 mm 2 mps 759 mmHg 72%
    21:00 +2°C° 0 mm 2 mps 759 mmHg 75%
    22:00 +1°C° 0 mm 2 mps 759 mmHg 79%
    23:00 +1°C° 0 mm 2 mps 758 mmHg 82%

    Day after tomorrow, 25 January, Saturday

    Time Temperature Precipitation Wind Pressure Humidity
    00:00 +1°C° 0 mm 2 mps 758 mmHg 84%
    01:00 +1°C° 0 mm 2 mps 758 mmHg 86%
    02:00 -1°C° 0 mm 2 mps 757 mmHg 87%
    03:00 -1°C° 0 mm 2 mps 757 mmHg 87%
    04:00 -1°C° 0 mm 2 mps 756 mmHg 87%
    05:00 -1°C° 0 mm 2 mps 756 mmHg 87%
    06:00 -1°C° 0 mm 2 mps 756 mmHg 85%
    07:00 -1°C° 0 mm 2 mps 756 mmHg 83%
    08:00 -1°C° 0 mm 2 mps 756 mmHg 81%
    09:00 +2°C° 0 mm 2 mps 756 mmHg 73%
    10:00 +4°C° 0 mm 2 mps 756 mmHg 64%
    11:00 +5°C° 0 mm 3 mps 756 mmHg 56%
    12:00 +8°C° 0 mm 3 mps 755 mmHg 52%
    13:00 +9°C° 0 mm 3 mps 755 mmHg 49%
    14:00 +10°C° 0 mm 2 mps 755 mmHg 45%
    15:00 +9°C° 0 mm 2 mps 755 mmHg 49%
    16:00 +8°C° 0 mm 2 mps 755 mmHg 53%
    17:00 +8°C° 0 mm 1 mps 754 mmHg 57%
    18:00 +7°C° 0 mm 1 mps 755 mmHg 59%
    19:00 +6°C° 0 mm 1 mps 755 mmHg 60%
    20:00 +6°C° 0 mm 1 mps 755 mmHg 62%
    21:00 +5°C° 0 mm 1 mps 755 mmHg 64%
    22:00 +5°C° 0 mm 1 mps 755 mmHg 66%
    23:00 +5°C° 0 mm 1 mps 755 mmHg 67%

    26 January, Sunday

    Time Temperature Precipitation Wind Pressure Humidity
    00:00 +5°C° 0 mm 1 mps 755 mmHg 70%
    01:00 +4°C° 0 mm 1 mps 755 mmHg 72%
    02:00 +4°C° 0 mm 1 mps 755 mmHg 74%
    03:00 +4°C° 0 mm 1 mps 756 mmHg 74%
    04:00 +4°C° 0 mm 1 mps 756 mmHg 74%
    05:00 +4°C° 0 mm 1 mps 756 mmHg 74%
    06:00 +4°C° 0 mm 1 mps 756 mmHg 74%
    07:00 +4°C° 0 mm 1 mps 756 mmHg 73%
    08:00 +4°C° 0 mm 1 mps 756 mmHg 73%
    09:00 +6°C° 0 mm 1 mps 756 mmHg 67%
    10:00 +8°C° 0 mm 1 mps 757 mmHg 61%
    11:00 +9°C° 0 mm 1 mps 757 mmHg 54%
    12:00 +10°C° 0 mm 1 mps 757 mmHg 52%
    13:00 +11°C° 0 mm 1 mps 757 mmHg 51%
    14:00 +12°C° 0 mm 1 mps 756 mmHg 49%
    15:00 +11°C° 0 mm 1 mps 756 mmHg 53%
    16:00 +9°C° 0 mm 0 mps 756 mmHg 57%
    17:00 +8°C° 0 mm 0 mps 756 mmHg 62%
    18:00 +8°C° 0 mm 0 mps 756 mmHg 64%
    19:00 +7°C° 0 mm 0 mps 757 mmHg 67%
    20:00 +7°C° 0 mm 0 mps 757 mmHg 69%
    21:00 +7°C° 0 mm 1 mps 757 mmHg 71%
    22:00 +7°C° 0 mm 1 mps 757 mmHg 73%
    23:00 +7°C° 0 mm 1 mps 757 mmHg 75%

    27 January, Monday

    Time Temperature Precipitation Wind Pressure Humidity
    00:00 +7°C° 0 mm 1 mps 757 mmHg 77%
    01:00 +6°C° 0 mm 1 mps 756 mmHg 79%
    02:00 +6°C° 0 mm 1 mps 756 mmHg 81%
    03:00 +6°C° 0 mm 1 mps 756 mmHg 83%
    04:00 +6°C° 0 mm 1 mps 756 mmHg 85%
    05:00 +6°C° 0 mm 1 mps 755 mmHg 87%
    06:00 +6°C° 0 mm 1 mps 755 mmHg 89%
    07:00 +7°C° 0 mm 1 mps 755 mmHg 90%
    08:00 +7°C° 0 mm 1 mps 756 mmHg 91%
    09:00 +7°C° 0.1 mm 1 mps 756 mmHg 91%
    10:00 +7°C° 0.1 mm 1 mps 756 mmHg 90%
    11:00 +8°C° 0.1 mm 1 mps 756 mmHg 90%
    12:00 +8°C° 0 mm 1 mps 756 mmHg 89%
    13:00 +9°C° 0 mm 1 mps 755 mmHg 87%
    14:00 +10°C° 0 mm 1 mps 755 mmHg 86%
    15:00 +9°C° 0 mm 1 mps 755 mmHg 87%
    16:00 +9°C° 0 mm 1 mps 755 mmHg 88%
    17:00 +9°C° 0 mm 1 mps 755 mmHg 90%
    18:00 +9°C° 0.1 mm 1 mps 755 mmHg 91%
    19:00 +9°C° 0.1 mm 1 mps 755 mmHg 92%
    20:00 +9°C° 0.1 mm 1 mps 755 mmHg 94%
    21:00 +7°C° 0.1 mm 0 mps 755 mmHg 94%
    22:00 +7°C° 0.1 mm 0 mps 756 mmHg 94%
    23:00 +7°C° 0.1 mm 0 mps 756 mmHg 95%

    28 January, Tuesday

    Time Temperature Precipitation Wind Pressure Humidity
    00:00 +7°C° 0.1 mm 0 mps 756 mmHg 95%
    01:00 +7°C° 0.1 mm 0 mps 756 mmHg 94%
    02:00 +7°C° 0.1 mm 0 mps 755 mmHg 94%
    03:00 +7°C° 0 mm 0 mps 756 mmHg 94%
    04:00 +7°C° 0 mm 0 mps 756 mmHg 94%
    05:00 +6°C° 0 mm 0 mps 756 mmHg 94%
    06:00 +7°C° 0 mm 0 mps 756 mmHg 94%
    07:00 +7°C° 0 mm 0 mps 756 mmHg 94%
    08:00 +8°C° 0 mm 1 mps 757 mmHg 94%
    09:00 +8°C° 0 mm 1 mps 757 mmHg 91%
    10:00 +9°C° 0 mm 1 mps 757 mmHg 87%
    11:00 +10°C° 0 mm 1 mps 757 mmHg 84%
    12:00 +11°C° 0 mm 1 mps 757 mmHg 81%
    13:00 +12°C° 0 mm 1 mps 756 mmHg 78%
    14:00 +12°C° 0 mm 1 mps 756 mmHg 75%
    15:00 +12°C° 0 mm 1 mps 756 mmHg 78%
    16:00 +11°C° 0 mm 1 mps 756 mmHg 81%
    17:00 +10°C° 0 mm 0 mps 756 mmHg 84%
    18:00 +10°C° 0 mm 0 mps 756 mmHg 85%
    19:00 +10°C° 0 mm 1 mps 756 mmHg 87%
    20:00 +10°C° 0 mm 1 mps 756 mmHg 88%
    21:00 +9°C° 0 mm 1 mps 756 mmHg 89%
    22:00 +9°C° 0 mm 1 mps 756 mmHg 90%
    23:00 +8°C° 0 mm 1 mps 756 mmHg 91%
    Show more